Время (UTC), дата Ветер
(°,м/с) 
Видим.   Явления Облачность Т
(°С)
Тd
(°С)
f(%) Тe
(°С)
Pmin
(гПа)
dP
(гПа)
Po
(мм)
O2
(г/м3)
Тmin Tmax R s Состояние
почвы
00 01.08.16 340 (С) 8000 м    ясно 
+19.6 +16.4 82 +32  1013.9  754  280           
03 01.08.16 270 (З) 10 км    1/0 средняя 
[Ac trans]
+19.9 +16 78 +31  1014.4  0.5  754  280  +18.4    0.0     
06 01.08.16 070 (В) 10 км    ясно 
+26.4 +17.6 58 +40  1014.3  0.1  754  273           
09 01.08.16 040 (СВ) 10 км    ясно 
+30.4 +17 45 +43  1014  -0.1  754  270           
12 01.08.16 310 (СЗ) 10 км    3/0 
[Cu med, cong]
+32.4 +14.8 35 +41  1013  -0.9  754  268           
15 01.08.16 330 (СЗ) 10 км    5/0 кучево-дожд., верхняя 
[Cb calv|Ci fib]
+32.4 +15.2 35 +41  1012.4  -0.5  753  268    +33       
18 01.08.16 090 (В) 8000 м    3/0 верхняя 
[Ci fib]
+26.2 +16.3 54 +37  1013.3  0.7  754  274           
21 01.08.16 080 (В) 8000 м    3/0 верхняя 
[Ci fib]
+23.5 +17 67 +36  1013.3  -0.1  754  276           
00 02.08.16 050 (СВ) 8000 м    ясно 
+21.6 +16.2 71 +32  1013  -0.2  753  278           
03 02.08.16 060 (СВ) 10 км    3/0 верхняя 
[Ci fib]
+22.4 +16.7 70 +34  1012.9  -0.1  753  277  +20.8         
06 02.08.16 080 (В) 10 км    ясно 
+28 +17.1 52 +40  1012.8  753  272           
09 02.08.16 060 (СВ) 10 км    1/0 
[Cu hum]
+32.2 +15.2 36 +41  1012  -0.6  753  268           
12 02.08.16 080 (В) 10 км    3/0 
[Cu med, cong]
+33.6 +12.2 27 +38  1010.5  -1.5  752  267           
15 02.08.16 090 (В) 10 км    4/0 кучево-дожд., средняя 
[Cb calv|Ac trans]
+32.9 +13.9 32 +40  1009.2  -1.2  751  267    +34.2       
18 02.08.16 050 (СВ) 8000 м    4/0 средняя 
[Ac trans]
+27.6 +15.4 47 +37  1009.6  0.3  751  272           
21 02.08.16 070 (В) 8000 м  зарница  4/0 кучево-дожд., средняя 
[Cb calv|Ac trans]
+24.2 +17.1 65 +37  1009.8  0.1  751  274           
00 03.08.16 090 (В) 8000 м    4/0 кучево-дожд., средняя 
[Cb calv|Ac trans]
+22.5 +15.8 66 +33  1009.4  -0.5  751  276           
03 03.08.16 060 (СВ) 10 км    4/0 средняя 
[Ac trans]
+22.1 +16.2 69 +33  1009.6  0.1  751  276  +20.5         
06 03.08.16 080 (В) 10 км    ясно 
+28.7 +17.3 50 +42  1009.2  -0.1  751  270           
09 03.08.16 100 (В) 10 км    5/0 верхняя 
[Cu med, cong|Ci fib]
+32.9 +14.9 34 +41  1008.8  -0.3  750  267           
12 03.08.16 110 (В) 10 км    5/0 кучево-дожд., верхняя 
[Cb calv|Ci fib]
+34.5 +11.9 25 +38  1007.3  -1.3  749  266           
15 03.08.16 050 (СВ) 10 км    6/0 кучево-дожд., средняя 
[Cb calv|Ac trans]
+32.9 +14 32 +40  1007  -0.4  749  267    +34.8       
18 03.08.16 340 (С) 8-13{12}  7000 м  гроза, ливневой дождь  9/5 1140 м кучево-дожд., средняя 
[Cb cap|Ac trans]
+21.8 +17.7 78 +35  1009.6  2.3  751  276           
21 03.08.16 080 (В) 3{12}  8000 м  зарница  6/0 кучево-дожд., средняя 
[Cb cap|Ac trans]
+21.9 +14.4 62 +30  1009  -0.6  750  277           
00 04.08.16 060 (СВ) 3{12}  8000 м  {гроза, ливн. осадки}  4/0 кучево-дожд., средняя 
[Cb calv|Ac trans]
+19.8 +14.2 70 +28  1009.4  0.3  751  279           
03 04.08.16 030 (СВ) 10 км    3/0 средняя, верхняя 
[Ac trans|Ci fib]
+20.6 +14.7 69 +29  1010.4  0.9  751  278  +19.2       
06 04.08.16 350 (С) 10 км    1/0 верхняя 
[Ci fib]
+25.1 +16.5 59 +36  1011  0.6  752  274           
09 04.08.16 340 (С) 10 км    4/0 верхняя 
[Ci fib]
+31.1 +17.3 44 +44  1010.8  752  268           
12 04.08.16 360 (С) 10 км    5/0 верхняя 
[Ci fib]
+33.3 +16.1 36 +44  1010.4  -0.3  752  267           
15 04.08.16 360 (С) 10 км    5/0 кучево-дожд., средняя, верхняя 
[Cb calv|Ac trans|Ci fib]
+32.4 +14.9 35 +41  1010.3  -0.1  752  268    +33.5       
18 04.08.16 350 (С) 8000 м  зарница  8/0 кучево-дожд., средняя 
[Cb calv|Ac trans]
+27.9 +16.2 49 +39  1012  1.6  753  272           
21 04.08.16 270 (З) 3{10}  8000 м  зарница  6/0 кучево-дожд., средняя 
[Cb cap|Ac trans]
+24.4 +15.3 57 +33  1013.4  1.1  754  276           
00 05.08.16 300 (СЗ) 2{10}  8000 м    6/0 средняя, верхняя 
[Ac trans|Ci fib]
+23.2 +17.2 69 +36  1012.7  -0.6  753  276           
03 05.08.16 010 (С) 7000 м  дымка  6/0 кучево-дожд., средняя, верхняя 
[Cb calv|Ac trans|Ci fib]
+21.7 +18 79 +36  1013.3  0.6  754  277  +21.3         
06 05.08.16 340 (С) 10 км    8/0 кучево-дожд., средняя, верхняя 
[Cb calv|Ac trans|Ci fib]
+24.4 +18.3 69 +39  1012.9  -0.2  753  274           
09 05.08.16 030 (СВ) 10 км    8/0 кучево-дожд., средняя, верхняя 
[Cb calv|Ac trans|Ci fib]
+29.5 +18.4 51 +44  1013.2  0.2  754  270           
12 05.08.16 120 (ЮВ) 10 км    8/0 кучево-дожд., средняя, верхняя 
[Cb calv|Ac trans|Ci fib]
+31 +17.3 44 +44  1013  753  269           
15 05.08.16 130 (ЮВ) 10 км    8/0 средняя, верхняя 
[Ac trans|Ci fib]
+29.7 +18.2 50 +44  1013.2  0.1  754  270    +31.7       
18 05.08.16 220 (ЮЗ) 8000 м    8/0 средняя, верхняя 
[Ac trans|Ci fib]
+26 +18.2 62 +41  1014  0.6  754  273           
21 05.08.16 350 (С) 8000 м    5/0 верхняя 
[Ci fib]
+23.5 +18.1 72 +38  1013.7  -0.3  754  276           
00 06.08.16 070 (В) 8000 м    5/0 средняя, верхняя 
[Ac trans|Ci fib]
+23.3 +17.2 69 +36  1013.8  754  276           
03 06.08.16 040 (СВ) 10 км    5/0 средняя, верхняя 
[Ac trans|Ci fib]
+22.9 +16.5 67 +34  1014  0.2  754  277  +22         
06 06.08.16 070 (В) 6-10  10 км    5/0 средняя, верхняя 
[Ac trans|Ci fib]
+30 +13.8 37 +37  1013.7  754  271           
09 06.08.16 100 (В) 7-10{10}  10 км    4/0 средняя, верхняя 
[Ac trans|Ci fib]
+32.9 +9.4 24 +33  1013.4  -0.2  754  270           
12 06.08.16 090 (В) 5{11}  10 км    5/0 средняя, верхняя 
[Ac trans|Ci fib]
+32.8 +11.7 28 +36  1013.3  -0.1  754  269           
15 06.08.16 090 (В) 5{12}  10 км    6/0 кучево-дожд., средняя, верхняя 
[Cb calv|Ac trans|Ci fib]
+31.8 +10.1 26 +33  1012.6  -0.7  753  270    +34.7       
18 06.08.16 090 (В) 2{12}  8000 м  слаб. ливневой дождь  9/0 кучево-дожд., средняя, верхняя 
[Cb calv|Ac trans|Ci fib]
+27.1 +11.3 37 +30  1013.5  0.8  754  274           
21 06.08.16 070 (В) 10 км  {ливн. осадки}  6/0 кучево-дожд., средняя, верхняя 
[Cb calv|Ac trans|Ci fib]
+25.9 +10.6 38 +28  1012.9  -0.6  753  275           
00 07.08.16 060 (СВ) 8000 м  {ливн. осадки}  4/0 кучево-дожд., средняя, верхняя 
[Cb calv|Ac trans|Ci fib]
+23.5 +12.3 49 +28  1013  753  277           
03 07.08.16 060 (СВ) 10 км    8/0 кучево-дожд., средняя 
[Cb calv|Ac trans]
+23.1 +12.7 52 +28  1013  753  277  +21.1    0.0     
06 07.08.16 080 (В) 7-11{10}  10 км    8/0 кучево-дожд., средняя 
[Cb calv|Ac trans]
+28.8 +12.9 38 +34  1012.5  -0.3  753  272           
09 07.08.16 080 (В) 7-10{12}  10 км    8/0 средняя, верхняя 
[Ac trans|Ci]
+32 +15.7 37 +42  1011.5  -0.7  752  268           
12 07.08.16 100 (В) 7-10{12}  10 км    8/0 средняя, верхняя 
[Ac trans|Ci fib]
+33.3 +13.3 30 +39  1010.8  -0.6  752  268           
15 07.08.16 070 (В) 5{10}  10 км    8/0 средняя, верхняя 
[Ac trans|Ci fib]
+32.4 +13.8 32 +39  1010  -0.8  751  268    +33.8       
18 07.08.16 050 (СВ) 4{10}  8000 м    6/0 кучево-дожд., средняя, верхняя 
[Cb calv|Ac trans|Ci fib]
+27.6 +15.4 47 +37  1010.9  0.8  752  272           
21 07.08.16 080 (В) 8000 м    4/0 верхняя 
[Ci fib]
+24.2 +13.7 52 +31  1011.9  0.8  752  276           
00 08.08.16 060 (СВ) 8000 м    5/0 верхняя 
[Ci fib]
+22.7 +14.7 61 +31  1011.2  -0.6  752  277           
03 08.08.16 030 (СВ) 10 км    4/0 средняя, верхняя 
[Ac trans|Ci fib]
+23.9 +14.3 55 +31  1011.5  0.2  752  276  +21.9         
06 08.08.16 080 (В) 10 км    4/0 средняя, верхняя 
[Ac trans|Ci fib]
+28.5 +15.7 46 +38  1012.1  0.7  753  271           
09 08.08.16 080 (В) 10 км    4/0 средняя, верхняя 
[Ac trans|Ci fib]
+32.6 +13.5 31 +39  1011.4  -0.5  752  268           
12 08.08.16 030 (СВ) 10 км    5/0 средняя, верхняя 
[Cu hum|Ac trans|Ci fib]
+35 +11.6 24 +38  1010.1  -1.1  751  266           
15 08.08.16 050 (СВ) 10 км    5/0 кучево-дожд., средняя 
[Cb calv|Ac trans]
+32.4 +12.7 30 +37  1010.6  0.3  752  268    +35.3       
18 08.08.16 050 (СВ) 8000 м    4/0 средняя, верхняя 
[Ac trans|Ci fib]
+27.3 +14.2 45 +35  1012.7  1.8  753  273           
21 08.08.16 060 (СВ) 8000 м    4/0 средняя 
[Ac trans]
+24.2 +14.9 56 +33  1013  0.1  753  276           
00 09.08.16 040 (СВ) 8000 м    3/0 средняя 
[Ac trans]
+23.3 +14.2 57 +31  1013.2  0.1  753  277           
03 09.08.16 080 (В) 10 км    3/0 верхняя 
[Ci fib]
+21.3 +14.6 66 +29  1013.8  0.5  754  279  +21         
06 09.08.16 070 (В) 10 км    3/0 верхняя 
[Ci fib]
+28.4 +15.2 45 +37  1014.2  0.6  754  272           
09 09.08.16 070 (В) 10 км    ясно 
+31.6 +14.3 35 +39  1013.6  -0.5  754  269           
12 09.08.16 110 (В) 10 км    3/0 
[Cu med, cong]
+32.8 +13.1 30 +38  1012.5  -0.9  753  268           
15 09.08.16 120 (ЮВ) 10 км    4/0 средняя 
[Cu med, cong|Ac trans]
+32.1 +14.3 34 +39  1012.3  -0.2  753  269    +33.4       
18 09.08.16 040 (СВ) 8000 м  дым  4/0 средняя, верхняя 
[Ac trans|Ci fib]
+27.8 +14.4 44 +35  1012.9  0.3  753  273           
21 09.08.16 060 (СВ) 8000 м    4/0 верхняя 
[Ci fib]
+23.5 +15 59 +32  1013.1  0.1  753  276           
00 10.08.16 060 (СВ) 8000 м    5/0 верхняя 
[Ci fib]
+22.5 +15.7 65 +32  1012.9  -0.2  753  277           
03 10.08.16 070 (В) 10 км    4/0 верхняя 
[Ci fib]
+22.4 +16.1 68 +33  1013.5  0.5  754  277  +21.8         
06 10.08.16 080 (В) 10 км    3/0 верхняя 
[Ci fib]
+26.2 +17 57 +38  1013.6  0.1  754  273           
09 10.08.16 090 (В) 10 км    1/0 верхняя 
[Ci fib]
+31.2 +16 40 +42  1012.4  -1  753  269           
12 10.08.16 090 (В) 6{10}  10 км    3/0 
[Cu med, cong]
+33 +14.1 32 +40  1011.2  -1.1  752  268           
15 10.08.16 080 (В) 5{10}  10 км    1/0 
[Cu hum]
+31.8 +13 32 +37  1010.3  -0.8  752  269    +33.3       
18 10.08.16 070 (В) 3{10}  8000 м    1/0 верхняя 
[Ci fib]
+26.3 +13.2 44 +32  1011.2  0.6  752  274           
21 10.08.16 030 (СВ) 8000 м    3/0 верхняя 
[Ci fib]
+26.7 +12.7 42 +32  1010.8  -0.3  752  274           
00 11.08.16 070 (В) 8000 м    3/0 верхняя 
[Ci fib]
+21.9 +12.8 56 +27  1011.1  0.1  752  278           
03 11.08.16 070 (В) 10 км    4/0 средняя, верхняя 
[Ac trans|Ci fib]
+22.4 +14.2 60 +30  1012  0.8  753  277  +21.2         
06 11.08.16 060 (СВ) 10 км    3/0 средняя, верхняя 
[Ac trans|Ci fib]
+28.8 +15.3 44 +38  1011.9  0.1  753  271           
09 11.08.16 080 (В) 6-10  10 км    4/0 средняя, верхняя 
[Cu hum|Ac trans|Ci fib]
+32.4 +12.2 29 +37  1011.2  -0.5  752  269           
12 11.08.16 120 (ЮВ) 3{10}  10 км    8/0 кучево-дожд., средняя, верхняя 
[Cb calv|Ac trans|Ci]
+33 +13.1 30 +38  1011  -0.2  752  268           
15 11.08.16 210 (ЮЗ) 10 км    8/0 кучево-дожд., средняя, верхняя 
[Cb calv|Ac trans|Ci fib]
+29.4 +18.6 52 +45  1010.7  -0.3  752  269    +33.3       
18 11.08.16 350 (С) 7000 м  дым  8/0 кучево-дожд., средняя 
[Cb calv|Ac trans]
+27.4 +16.9 53 +39  1011.8  752  272           
21 11.08.16 250 (З) 1{10}  8000 м    5/0 средняя 
[Ac trans]
+23.4 +17.1 68 +36  1012.8  0.9  753  276           
00 12.08.16 270 (З) 2{10}  8000 м    6/0 средняя 
[Ac trans]
+23.1 +17.3 70 +36  1012.4  -0.3  753  276           
03 12.08.16 230 (ЮЗ) 10 км    8/0 средняя 
[Ac trans]
+23.1 +17 69 +35  1013  0.5  753  276  +21.6         
06 12.08.16 060 (СВ) 10 км    8/0 кучево-дожд., средняя 
[Cb calv|Ac trans]
+24.7 +18.8 70 +41  1013.3  0.3  754  274           
09 12.08.16 070 (В) 10 км    8/0 средняя 
[Ac trans]
+31.4 +15.1 37 +40  1012.4  -0.8  753  269           
12 12.08.16 110 (В) 10 км    4/0 средняя 
[Cu med, cong|Ac trans]
+33.4 +13.1 29 +39  1011.3  -1  752  268           
15 12.08.16 070 (В) 10 км    1/0 
[Cu hum]
+32.2 +14 33 +39  1010.5  -0.8  752  268    +33.6       
18 12.08.16 070 (В) 8000 м    1/0 средняя 
[Ac trans]
+26.3 +15.1 50 +35  1011  0.3  752  273           
21 12.08.16 080 (В) 8000 м    ясно 
+25.1 +15.2 54 +34  1010.9  -0.1  752  274           
00 13.08.16 060 (СВ) 8000 м    1/0 средняя 
[Ac trans]
+22.3 +16.2 68 +33  1010.6  -0.3  752  276           
03 13.08.16 040 (СВ) 6000 м  мгла  4/0 средняя 
[Ac trans]
+23.3 +17 68 +36  1011.1  0.5  752  275  +21.2         
06 13.08.16 210 (ЮЗ) 10 км    9/0 средняя, верхняя 
[Ac trans|Ci fib]
+30.2 +19.3 52 +47  1011  752  268           
09 13.08.16 260 (З) 10 км    6/0 средняя, верхняя 
[Cu med, cong|Ac trans|Ci fib]
+32 +16.8 40 +44  1011  0.1  752  268           
12 13.08.16 280 (З) 10 км    8/0 средняя, верхняя 
[Cu med, cong|Ac trans|Ci fib]
+33.1 +15.7 35 +43  1010.8  -0.2  752  267           
15 13.08.16 270 (З) 10 км    9/0 кучево-дожд., средняя, верхняя 
[Cb calv|Ac trans|Ci fib]
+31.8 +17.9 44 +46  1010.5  -0.3  752  267    +33.6       
18 13.08.16 190 (Ю) 6-13  8000 м  гроза без осадков  9/0 кучево-дожд., средняя, верхняя 
[Cb cap|Ac trans|Ci fib]
+27 +17.8 57 +41  1013.1  2.1  753  272           
21 13.08.16 270 (З) 3{16}  8000 м  зарница{гроза}  8/0 кучево-дожд., средняя 
[Cb calv|Ac trans]
+22.9 +17.4 71 +36  1011.1  -2  752  276           
00 14.08.16 тихо () {16}  8000 м  {гроза}  4/0 средняя 
[Ac trans]
+21.8 +18.1 80 +36  1010  -1.1  751  276           
03 14.08.16 330 (СЗ) 10 км    9/0 кучево-дожд., средняя, верхняя 
[Cb calv|Ac trans|Ci fib]
+21.5 +17.6 78 +35  1010.1  0.1  751  277  +21.1    0.0     
06 14.08.16 300 (СЗ) 4100 м  слаб. ливневой дождь  9/5 930 м кучево-дожд., средняя 
[Cb calv|Ac trans]
+21.4 +18 81 +36  1010.7  0.6  752  277           
09 14.08.16 260 (З) 10 км  слаб. ливневой дождь  9/0 кучево-дожд., средняя 
[Cb calv|Ac trans]
+21.4 +17.9 80 +35  1011.2  0.3  752  277           
12 14.08.16 260 (З) 7-12{12}  10 км  {ливн. осадки}  8/0 кучево-дожд., средняя 
[Cb calv|Ac trans]
+22.5 +14.3 60 +30  1012.4  1.2  753  277           
15 14.08.16 260 (З) 5{13}  10 км    6/0 кучево-дожд., средняя 
[Cb calv|Ac trans]
+21.8 +11.6 52 +25  1012.9  0.5  753  279    +23     
18 14.08.16 270 (З) 3{13}  8000 м    4/0 кучево-дожд., средняя 
[Cb calv|Ac trans]
+19.7 +10.6 56 +23  1014.4  1.3  754  282           
21 14.08.16 280 (З) 8000 м    1/0 средняя 
[Ac trans]
+17.1 +11.2 68 +20  1015.8  1.2  755  284           
00 15.08.16 270 (З) 8000 м    1/0 средняя 
[Ac trans]
+15.1 +9 67 +15  1016.8  0.8  756  287           
03 15.08.16 230 (ЮЗ) 10 км    3/0 средняя, верхняя 
[Ac trans|Ci fib]
+15 +10.5 74 +17  1016.7  756  287  +13.8         
06 15.08.16 250 (З) 10 км    3/0 верхняя 
[Ci fib]
+22 +12.9 56 +27  1016.8  0.3  756  279           
09 15.08.16 250 (З) 7-12{11}  10 км    5/0 верхняя 
[Cu med, cong|Ci fib]
+26.2 +11.9 41 +30  1016.7  0.1  756  276           
12 15.08.16 250 (З) 6{12}  10 км    5/0 верхняя 
[Cu med, cong|Ci fib]
+27.4 +11.9 38 +31  1016.3  -0.4  756  275           
15 15.08.16 270 (З) 4{11}  10 км    5/0 верхняя 
[Cu med, cong|Ci fib]
+27.1 +11.6 38 +30  1016  -0.3  756  275    +28       
18 15.08.16 240 (ЮЗ) 2{11}  8000 м    3/0 средняя, верхняя 
[Ac trans|Ci fib]
+22.8 +16.6 68 +34  1016.9  0.8  756  278           
21 15.08.16 240 (ЮЗ) 8000 м    1/0 средняя 
[Ac trans]
+20.9 +15.4 71 +30  1017.2  0.1  756  280           
00 16.08.16 300 (СЗ) 8000 м    ясно 
+18.9 +15.2 79 +29  1017  -0.3  756  282           
03 16.08.16 110 (В) 10 км    ясно 
+17.5 +15 85 +26  1017.6  0.6  757  283  +17.3         
06 16.08.16 080 (В) 10 км    1/0 верхняя 
[Ci fib]
+23.7 +16 62 +34  1017.5  757  277           
09 16.08.16 100 (В) 10 км    3/0 
[Cu med, cong]
+27.5 +11.2 36 +30  1016.3  -1.1  756  275           
12 16.08.16 090 (В) 10 км    4/0 
[Cu med, cong]
+28.7 +11.9 35 +32  1015  -1.2  755  273           
15 16.08.16 080 (В) 10 км    4/0 средняя 
[Cu hum|Ac trans]
+27.5 +11.8 38 +31  1014.4  -0.6  754  274    +29.4       
18 16.08.16 050 (СВ) 8000 м    5/0 средняя 
[Ac trans]
+24.2 +10.4 42 +26  1014.2  -0.2  754  277           
21 16.08.16 050 (СВ) 8000 м    5/0 средняя 
[Ac trans]
+21.1 +11.2 53 +24  1013.6  -0.7  754  280           
00 17.08.16 070 (В) 8000 м    3/0 средняя 
[Ac trans]
+21.4 +10.7 50 +23  1012.9  -0.6  753  279           
03 17.08.16 090 (В) 10 км    8/0 средняя 
[Ac trans]
+20.7 +12.4 59 +25  1013  753  280  +19.8         
06 17.08.16 080 (В) 10 км    5/0 средняя 
[Ac trans]
+24.8 +14.3 52 +32  1012.9  0.1  753  275           
09 17.08.16 100 (В) 7-10{10}  10 км    3/0 средняя 
[Ac trans]
+28.9 +12 35 +33  1012.4  -0.3  753  272           
12 17.08.16 100 (В) 6{10}  10 км    5/0 средняя, верхняя 
[Cu med, cong|Ac trans|Ci fib]
+30.8 +12.5 33 +35  1011.7  -0.7  752  270           
15 17.08.16 100 (В) 10 км    6/0 средняя, верхняя 
[Cu med, cong|Ac trans|Ci fib]
+29.4 +13.1 37 +35  1011.2  -0.4  752  271    +31       
18 17.08.16 070 (В) 8000 м    4/0 средняя, верхняя 
[Ac trans|Ci fib]
+24.1 +14.5 55 +32  1012.5  753  276           
21 17.08.16 060 (СВ) 8000 м    4/0 верхняя 
[Ci fib]
+21.2 +13.6 62 +27  1012.5  753  279           
00 18.08.16 050 (СВ) 8000 м    8/0 средняя, верхняя 
[Ac trans|Ci fib]
+20.9 +13.6 63 +27  1011  -1.5  752  279           
03 18.08.16 050 (СВ) 10 км    8/0 средняя, верхняя 
[Ac trans|Ci fib]
+20.1 +13.3 65 +26  1010.6  -0.5  751  279  +20.1         
06 18.08.16 080 (В) 6{10}  10 км    8/0 средняя, верхняя 
[Ac trans|Ci]
+23.7 +13.7 53 +30  1010.3  -0.1  751  276           
09 18.08.16 110 (В) 6{10}  10 км    8/0 средняя, верхняя 
[Ac trans|Ci]
+26.3 +16.8 56 +38  1011.2  752  273           
12 18.08.16 100 (В) 9-13{11}  10 км    9/0 кучево-дожд., средняя, верхняя 
[Cb calv|Ac trans|Ci]
+23.9 +15.1 58 +33  1012.3  0.9  753  276           
15 18.08.16 080 (В) 6{14}  10 км    9/6 1500 м кучево-дожд., средняя, верхняя 
[Cb calv|Ac trans|Ci fib]
+22.5 +14.6 61 +30  1012.4  0.1  753  277    +26.6       
18 18.08.16 070 (В) 6{14}  8000 м    6/0 кучево-дожд., средняя, верхняя 
[Cb calv|Ac trans|Ci fib]
+20.2 +14.1 68 +27  1012.8  0.2  753  280           
21 18.08.16 340 (С) 8000 м    4/0 средняя 
[Ac trans]
+18.7 +14.4 76 +28  1012.5  -0.3  753  281           
00 19.08.16 300 (СЗ) 8000 м    3/0 средняя 
[Ac trans]
+16 +13.5 85 +23  1012.5  753  284           
03 19.08.16 100 (В) 10 км    1/0 средняя 
[Ac trans]
+16.3 +14.2 87 +25  1013.3  0.6  753  284  +15.1         
06 19.08.16 210 (ЮЗ) 10 км    ясно 
+23.1 +15.9 64 +33  1013.6  0.5  754  277           
09 19.08.16 210 (ЮЗ) 10 км    ясно 
+27.4 +15.8 49 +37  1013.6  0.1  754  273           
12 19.08.16 230 (ЮЗ) 10 км    ясно 
+30.4 +16.3 43 +41  1013.2  -0.3  754  270           
15 19.08.16 310 (СЗ) 10 км    ясно 
+30.4 +16.1 42 +41  1013  -0.3  753  270    +31.3       
18 19.08.16 030 (СВ) 8000 м    1/0 верхняя 
[Ci fib]
+25 +16.5 59 +36  1013.8  0.8  754  275           
21 19.08.16 320 (СЗ) 8000 м    1/0 верхняя 
[Ci fib]
+23.3 +16.2 64 +34  1014.1  0.1  754  277           
00 20.08.16 060 (СВ) 8000 м    ясно 
+21.5 +16.2 72 +32  1014.5  0.3  754  278           
03 20.08.16 060 (СВ) 10 км    ясно 
+21.3 +15.4 69 +30  1015.4  0.8  755  279  +20.1         
06 20.08.16 060 (СВ) 10 км    3/0 верхняя 
[Ci fib]
+29 +16.8 48 +41  1015.6  0.5  755  272           
09 20.08.16 080 (В) 10 км    3/0 верхняя 
[Ci fib]
+33.1 +15.1 34 +42  1015  -0.5  755  268           
12 20.08.16 070 (В) 5{10}  10 км    4/0 верхняя 
[Cu hum|Ci fib]
+34.7 +14.4 30 +42  1014.4  -0.6  755  267           
15 20.08.16 070 (В) 10 км    1/0 
[Cu hum]
+33.2 +12.2 28 +37  1014  -0.3  754  269    +34.9       
18 20.08.16 050 (СВ) 8000 м    ясно 
+26.1 +11.6 40 +29  1015.1  0.9  755  276           
21 20.08.16 020 (С) 8000 м    ясно 
+26.1 +9.6 35 +27  1014.7  -0.4  755  276           
00 21.08.16 050 (СВ) 8000 м    ясно 
+23.4 +9.6 42 +24  1014.8  755  278           
03 21.08.16 080 (В) 10 км    ясно 
+22.1 +12.3 54 +26  1015.8  0.9  755  279  +20         
06 21.08.16 080 (В) 10 км    8/0 верхняя 
[Ci fib]
+28.2 +12.4 38 +33  1016.5  0.9  756  274           
09 21.08.16 080 (В) 10 км    9/0 верхняя 
[Ci fib]
+32.8 +11.5 27 +36  1015.4  -1  755  270           
12 21.08.16 080 (В) 7-11{12}  10 км    9/0 средняя, верхняя 
[Ac trans|Ci fib]
+34.8 +9.4 21 +35  1014.3  -1  755  268           
15 21.08.16 080 (В) 10 км    8/0 верхняя 
[Ci fib]
+33.9 +11.1 25 +36  1013.4  -0.9  754  268    +36.4       
18 21.08.16 070 (В) 4{12}  8000 м    8/0 средняя, верхняя 
[Ac trans|Ci fib]
+27.9 +10.9 35 +30  1014.1  0.5  754  274           
21 21.08.16 080 (В) 8000 м    6/0 верхняя 
[Ci fib]
+26.8 +9.9 35 +28  1014  -0.1  754  275           
00 22.08.16 060 (СВ) 8000 м    5/0 верхняя 
[Ci fib]
+23.5 +11.5 47 +27  1014.5  0.3  754  278           
03 22.08.16 070 (В) 10 км    6/0 средняя, верхняя 
[Ac trans|Ci fib]
+23 +12.3 51 +27  1015.3  0.7  755  278  +22.4         
06 22.08.16 080 (В) 7-10  10 км    8/0 средняя, верхняя 
[Ac trans|Ci]
+27.5 +14.9 46 +36  1015.4  0.2  755  273           
09 22.08.16 100 (В) 9-13{12}  10 км    8/0 средняя, верхняя 
[Ac trans|Ci]
+32.9 +13.8 32 +39  1014.6  -0.4  755  269           
12 22.08.16 110 (В) 9-13{13}  10 км    9/0 средняя, верхняя 
[Ac trans|Ci]
+36 +8.3 18 +36  1013.2  -1.6  754  267           
15 22.08.16 070 (В) 4{13}  10 км    9/0 кучево-дожд., средняя, верхняя 
[Cb calv|Ac trans|Ci]
+32.1 +12.2 30 +36  1012.8  -0.2  753  269    +36.3       
18 22.08.16 080 (В) 7{13}  8000 м    8/0 кучево-дожд., средняя, верхняя 
[Cb calv|Ac trans|Ci fib]
+30.5 +8.3 25 +31  1014  1.1  754  272           
21 22.08.16 080 (В) 6{10}  8000 м    6/0 кучево-дожд., средняя, верхняя 
[Cb calv|Ac trans|Ci fib]
+26.4 +9.7 35 +27  1014.6  0.4  755  276           
00 23.08.16 070 (В) 5{10}  8000 м    6/0 средняя, верхняя 
[Ac trans|Ci fib]
+24.3 +12.8 49 +29  1015.5  0.7  755  277           
03 23.08.16 080 (В) 7{10}  10 км    5/0 средняя, верхняя 
[Ac trans|Ci fib]
+22.5 +12.1 52 +26  1016.1  0.6  756  279  +22.6         
06 23.08.16 090 (В) 7-10{11}  10 км    4/0 средняя, верхняя 
[Ac trans|Ci fib]
+25.7 +13.3 46 +31  1016.2  0.1  756  276           
09 23.08.16 090 (В) 8-11{11}  10 км    ясно 
+32.1 +10.5 27 +34  1015.5  -0.4  755  271           
12 23.08.16 090 (В) 7-10{13}  10 км    6/0 средняя, верхняя 
[Ac trans|Ci fib]
+32.9 +8.6 22 +33  1014.1  -1.4  754  270           
15 23.08.16 070 (В) 10 км    6/0 средняя, верхняя 
[Ac trans|Ci fib]
+31.5 +9 25 +32  1013.3  -0.8  754  271    +34       
18 23.08.16 060 (СВ) 4{11}  8000 м    6/0 средняя, верхняя 
[Ac trans|Ci fib]
+27.5 +8 29 +28  1013  -0.3  753  274           
21 23.08.16 080 (В) 6{11}  8000 м    5/0 средняя 
[Ac trans]
+25.8 +12.1 42 +30  1012.6  -0.4  753  275           
00 24.08.16 080 (В) 6{11}  8000 м    4/0 средняя 
[Ac trans]
+23.4 +14.5 57 +31  1013.3  0.5  754  277           
03 24.08.16 090 (В) 8-11{10}  10 км    5/0 средняя 
[Ac trans]
+21.1 +12.6 58 +26  1013.7  0.3  754  280  +21.1         
06 24.08.16 100 (В) 7-11{11}  10 км  {ливн. осадки}  8/0 кучево-дожд., средняя, верхняя 
[Cb calv|Ac trans|Ci fib]
+21.7 +14.5 64 +29  1013.1  -0.5  753  278           
09 24.08.16 070 (В) 6{10}  10 км    6/0 средняя, верхняя 
[Ac trans|Ci fib]
+29.9 +17.5 47 +43  1011.9  -0.9  753  269           
12 24.08.16 140 (ЮВ) 4{12}  10 км    6/0 кучево-дожд., средняя, верхняя 
[Cb calv|Ac trans|Ci fib]
+30.5 +15.7 41 +40  1010.3  -1.5  751  269           
15 24.08.16 220 (ЮЗ) 10 км  гроза, ливневой дождь  9/0 кучево-дожд., средняя 
[Cb cap|Ac trans]
+24.7 +19.4 72 +42  1009.5  -0.7  751  273    +32.6     
18 24.08.16 290 (З) 6000 м  дымка{гроза, ливн. осадки}  6/0 кучево-дожд., средняя 
[Cb calv|Ac trans]
+23.1 +20.3 84 +42  1010.4  0.7  751  274           
21 24.08.16 260 (З) 6000 м  дымка  6/0 кучево-дожд., средняя 
[Cb calv|Ac trans]
+21.4 +19.3 88 +38  1009.7  -0.7  751  276           
00 25.08.16 120 (ЮВ) 7000 м  дымка  4/0 кучево-дожд., средняя, верхняя 
[Cb calv|Ac trans|Ci fib]
+19.6 +17.1 85 +34  1009.5  -0.3  751  278           
03 25.08.16 150 (ЮВ) 5000 м  дымка  5/0 кучево-дожд., средняя 
[Cb calv|Ac trans]
+20.6 +18.8 89 +37  1009.3  -0.1  751  277  +19.2    0.0     
06 25.08.16 180 (Ю) 10 км    5/0 кучево-дожд., средняя, верхняя 
[Cb calv|Ac trans|Ci fib]
+25 +19.6 72 +43  1009.6  0.4  751  272           
09 25.08.16 240 (ЮЗ) 10 км    8/0 кучево-дожд., средняя, верхняя 
[Cb calv|Ac trans|Ci fib]
+28.6 +18.9 56 +45  1009.1  -0.3  751  269           
12 25.08.16 240 (ЮЗ) 5{11}  10 км    8/0 кучево-дожд., средняя, верхняя 
[Cb calv|Ac trans|Ci fib]
+28.8 +18.7 54 +45  1009.3  0.2  751  269           
15 25.08.16 260 (З) 4{10}  10 км    6/0 кучево-дожд., средняя, верхняя 
[Cb calv|Ac trans|Ci fib]
+26.3 +18.7 63 +42  1009.8  0.3  751  272    +29.5       
18 25.08.16 270 (З) 2{10}  8000 м    5/0 верхняя 
[Ci fib]
+23.9 +16.3 62 +35  1011.2  1.3  752  275           
21 25.08.16 300 (СЗ) 8000 м  дым  3/0 верхняя 
[Ci fib]
+21.1 +16.3 74 +32  1011  -0.2  752  278           
00 26.08.16 300 (СЗ) 6000 м  дымка  ясно 
+18.6 +15.7 83 +30  1011.9  0.7  752  280           
03 26.08.16 310 (СЗ) 4900 м  дымка  8/4 200 м кучево-дожд., средняя 
[Cb calv|Ac trans]
+18.7 +17 90 +32  1012  0.1  752  280  +17.5         
06 26.08.16 230 (ЮЗ) 5000 м  дымка  9/5 400 м средняя 
[St|Ac trans]
+20.7 +18 85 +35  1013.9  1.8  754  278           
09 26.08.16 310 (СЗ) 6000 м  дым  9/0 средняя 
[Sc|Ac trans]
+23.3 +16.7 66 +35  1014.1  0.2  754  276           
12 26.08.16 300 (СЗ) 10 км    8/0 средняя 
[Sc|Ac trans]
+25.1 +15.9 57 +35  1014.3  0.4  754  275           
15 26.08.16 320 (СЗ) 10 км    8/0 средняя, верхняя 
[Sc|Ac trans|Ci]
+24.9 +14.7 53 +33  1014.9  0.4  755  276    +25.8       
18 26.08.16 360 (С) 7000 м  дым  8/0 средняя, верхняя 
[Ac trans|Ci fib]
+22 +16.5 71 +33  1016  756  278           
21 26.08.16 010 (С) 8000 м  дым  3/0 верхняя 
[Ci fib]
+20.8 +16.5 76 +32  1016.3  0.1  756  279           
00 27.08.16 050 (СВ) 7000 м  дымка  3/0 верхняя 
[Ci fib]
+18.7 +16 84 +30  1016.9  0.5  756  282           
03 27.08.16 030 (СВ) 4000 м  дымка  4/0 кучево-дожд., средняя, верхняя 
[Cb calv|Ac trans|Ci fib]
+19.3 +16.6 84 +31  1017.7  0.8  757  281  +17.3         
06 27.08.16 050 (СВ) 10 км    3/0 верхняя 
[Ci fib]
+24.7 +18.1 67 +39  1018.1  0.5  757  276           
09 27.08.16 360 (С) 10 км    5/0 верхняя 
[Cu med, cong|Ci fib]
+28.8 +16.1 46 +39  1018.5  0.5  758  273           
12 27.08.16 070 (В) 10 км    5/0 верхняя 
[Cu med, cong|Ci fib]
+30.4 +15.5 41 +40  1017.4  -1  757  271           
15 27.08.16 100 (В) 10 км    5/0 кучево-дожд., верхняя 
[Cb calv|Ci fib]
+29.3 +15.3 43 +38  1017.2  -0.3  757  272    +30.7       
18 27.08.16 040 (СВ) 8000 м    4/0 средняя, верхняя 
[Ac trans|Ci fib]
+26.4 +13.9 46 +33  1018  0.8  757  275           
21 27.08.16 050 (СВ) 6{10}  8000 м    4/0 средняя, верхняя 
[Ac trans|Ci fib]
+23.6 +10.5 44 +25  1018.4  0.3  757  279           
00 28.08.16 060 (СВ) 3{10}  8000 м    4/0 верхняя 
[Ci fib]
+20 +11.5 58 +23  1018.4  -0.1  757  282           
03 28.08.16 060 (СВ) 10 км    3/0 верхняя 
[Ci fib]
+18.7 +12.1 65 +23  1018.8  0.3  758  283  +18.6         
06 28.08.16 080 (В) 10 км    ясно 
+26.2 +12.5 43 +31  1019.1  0.5  758  276           
09 28.08.16 090 (В) 10 км    ясно 
+29.8 +11.2 32 +32  1018.4  -0.5  757  273           
12 28.08.16 090 (В) 10 км    ясно 
+31.4 +8.8 25 +31  1017.1  -1.1  757  272           
15 28.08.16 100 (В) 10 км    ясно 
+29.9 +11.2 32 +33  1016.7  -0.4  756  273    +31.8       
18 28.08.16 050 (СВ) 8000 м    ясно 
+24 +11.8 46 +27  1017.4  0.5  757  278           
21 28.08.16 050 (СВ) 8000 м    ясно 
+22 +11.3 51 +25  1017.6  757  280           
00 29.08.16 050 (СВ) 8000 м    ясно 
+20.6 +10.9 54 +23  1017.3  -0.2  756  281           
03 29.08.16 070 (В) 10 км    4/0 верхняя 
[Ci fib]
+19 +11.7 63 +23  1017.7  0.2  757  283  +18.3         
06 29.08.16 080 (В) 10 км    ясно 
+25.7 +13.4 47 +32  1018  0.5  757  276           
09 29.08.16 110 (В) 10 км    ясно 
+30.9 +11.2 30 +34  1016.7  -1  756  272           
12 29.08.16 090 (В) 6{12}  10 км    ясно 
+32.5 +10.5 26 +34  1015.4  -1.2  755  270           
15 29.08.16 070 (В) 5{12}  10 км    1/0 средняя 
[Ac trans]
+31 +11.5 30 +34  1014.9  -0.5  755  271    +33.1       
18 29.08.16 080 (В) 5{12}  8000 м    ясно 
+27.4 +11.1 36 +30  1015.5  0.5  755  275           
21 29.08.16 070 (В) 7-11  8000 м    ясно 
+24.4 +13.7 51 +31  1016  0.4  756  277           
00 30.08.16 070 (В) 7{1/}  8000 м    4/0 верхняя 
[Ci fib]
+22.2 +10.9 49 +24  1015.6  -0.4  755  279           
03 30.08.16 070 (В) 10 км    8/0 верхняя 
[Ci fib]
+21.1 +7.3 41 +21  1015.5  -0.1  755  281  +20.9         
06 30.08.16 090 (В) 7{10}  10 км    6/0 средняя, верхняя 
[Ac trans|Ci fib]
+24.6 +8.7 36 +25  1015.2  -0.2  755  278           
09 30.08.16 090 (В) 7-10{10}  10 км    4/0 средняя, верхняя 
[Ac trans|Ci fib]
+31.1 +10.7 28 +33  1013.9  -0.9  754  271           
12 30.08.16 110 (В) 8-11{13}  10 км    5/0 средняя, верхняя 
[Ac trans|Ci fib]
+33.2 +10.4 25 +35  1012.1  -1.6  753  269           
15 30.08.16 100 (В) 4{11}  10 км    4/0 средняя, верхняя 
[Ac trans|Ci fib]
+30.8 +10.7 29 +33  1011.2  -0.9  752  270    +33.5       
18 30.08.16 100 (В) 3{11}  8000 м  зарница  6/0 кучево-дожд., средняя 
[Cb cap|Ac trans]
+26.5 +11.1 38 +29  1011.3  752  274           
21 30.08.16 080 (В) 8000 м    5/0 кучево-дожд., средняя 
[Cb calv|Ac trans]
+24 +7.4 34 +24  1010.1  -1.2  751  277           
00 31.08.16 080 (В) 8000 м  зарница  6/0 кучево-дожд., средняя 
[Cb cap|Ac trans]
+21.7 +6.5 37 +22  1009.3  -0.8  751  279           
03 31.08.16 070 (В) 10 км  гроза, ливневой дождь  8/0 кучево-дожд., средняя 
[Cb cap|Ac trans]
+20.4 +11.6 57 +24  1009.4  751  279  +19.1    0.0     
06 31.08.16 150 (ЮВ) 5000 м  гроза, ливневой дождь  9/6 930 м кучево-дожд., средняя 
[Cb cap|Ac trans]
+18.3 +16.7 90 +31  1009.9  0.4  751  280  +17.4         
09 31.08.16 230 (ЮЗ) 10 км  {гроза, ливн. осадки}  8/0 кучево-дожд., средняя 
[Cb calv|Ac trans]
+22.4 +18.6 79 +38  1009.4  -0.3  751  275           
12 31.08.16 210 (ЮЗ) 10 км  {гроза, ливн. осадки}  9/0 кучево-дожд., средняя 
[Cb calv|Ac trans]
+21.9 +18.8 83 +38  1008.8  -0.6  750  275           
15 31.08.16 310 (СЗ) 6000 м  слаб. ливневой дождь  9/6 1000 м кучево-дожд., средняя 
[Cb calv|Ac trans]
+20.5 +18.9 91 +37  1009  0.1  750  277    +23.2  16     
18 31.08.16 330 (СЗ) 7-12{10}  8000 м  {ливн. осадки}  9/0 кучево-дожд., средняя 
[Cb calv|Ac trans]
+17.6 +14.7 83 +25  1011  1.8  752  281           
21 31.08.16 320 (СЗ) 4{12}  8000 м    6/4 700 м средняя 
[Sc|Ac trans]
+17.5 +14.6 83 +26  1012.2  753  282           
00 01.09.16 340 (С) 5{12}  8000 м    8/8 700 м 
[Sc]
+17.7 +13.8 78 +25  1013.2  0.8  753  282           
03 01.09.16 330 (СЗ) 10 км    1/0 средняя 
[Ac trans]
+14.3 +12.1 87 +18  1014.6  1.3  754  286  +14.3    0.0     
Время (UTC), дата Ветер
(°,м/с) 
Видим.   Явления Облачность Т
(°С)
Тd
(°С)
f(%) Тe
(°С)
Pmin
(гПа)
dP
(гПа)
Po
(мм)
O2
(г/м3)
Тmin Tmax R s Состояние
почвы